KINEIS-3B

Last updated on Sun Apr 12 2026 00:02:47 GMT+0000 (Coordinated Universal Time)

1 61224U 24172E 26101.48085985 .00001540 00000+0 25120-3 0 9990 2 61224 98.0330 192.2234 0000906 325.2068 34.9080 14.72366286 83532
UTC large
Height (km)
Speed (km/s)
/
Latitude / Longitude
Inclination (degrees)
Orbital Period (minutes)
Azimuth
Elevation
Range (km)
Doppler Factor

Next 0 passes for location: London (51.5072 / 0.1276)

Sorry there are no passes over London.
KINEIS-3B